[[{"header":{"parameterUnit":"m.s-1","parameterCategory":1,"la1":30.2991,"la2":30.254,"lo1":-89.0895,"lo2":-89.0444,"dy":0.0017,"dx":0.0017,"nx":28,"ny":28,"refTime":"2025-03-22T03:00:00:Z","depth":0,"parameterNumber":2,"parameterNumberName":"U-component_of_WINDS"},"data":[0,0,0,0,0,0,0,0,0,0,0,0,0,0,0,0,0,0,0,0,0,0,0,0,0,0,0,0,0,0,0,0,0,0,0,0,0,0,0,0,0,0,0,0,0,0,0,0,0,0,0,0,0,0,0,0,0,0,0.3155,0.3156,0,0.3277,0.3278,0.328,0.3339,0.3339,0.3339,0.3339,0.3463,0.3466,0.3469,0,0,0,0,0,0,0,0,0,0,0,0,0,0.2971,0.2974,0.3155,0.3156,0.3158,0.3277,0.3278,0.328,0.3339,0.3339,0.3339,0.3339,0.3462,0.3466,0.347,0,0,0,0,0,0,0,0,0,0,0,0,0,0.3068,0.2975,0.3155,0.3202,0.3207,0.3276,0.3278,0.328,0.3339,0.3339,0.3339,0.3339,0.3461,0.3465,0.347,0.3501,0,0,0.3485,0.3487,0,0,0,0,0,0,0,0,0.3062,0.3074,0.3193,0.3199,0.3205,0.3293,0.3259,0.3354,0.3339,0.3289,0.3339,0.3339,0.3406,0.3416,0.3439,0.3507,0.3512,0.3486,0.3489,0.3491,0.3492,0,0,0,0,0,0,0,0.3055,0.307,0.3203,0.3195,0.3202,0.3216,0.323,0.3277,0.3346,0.3294,0.3298,0.3312,0.3409,0.3434,0.3442,0.3514,0.3486,0.349,0.3493,0.3495,0.3613,0.3613,0,0,0,0,0,0,0.3041,0.3064,0.3199,0.3207,0.3132,0.322,0.3235,0.3265,0.3346,0.3358,0.3312,0.3314,0.3425,0.3436,0.3446,0.3488,0.3491,0.3495,0.3498,0.3612,0.3613,0.3613,0,0,0,0,0,0,0.3037,0.3053,0.3194,0.3137,0.3156,0.3223,0.3256,0.3267,0.3291,0.336,0.3372,0.3324,0.3426,0.3439,0.3487,0.3493,0.3498,0.3502,0.3612,0.3613,0.3613,0.357,0,0,0,0,0,0,0.3032,0.3051,0.3064,0.3136,0.3158,0.3233,0.3256,0.3269,0.33,0.3304,0.3374,0.3386,0.3427,0.3479,0.3492,0.35,0.3506,0.3612,0.3612,0.3613,0.3571,0.3569,0.3567,0,0,0,0,0,0.3025,0.3047,0.3064,0.308,0.3176,0.3233,0.3246,0.3293,0.33,0.3313,0.3357,0.3384,0.349,0.3483,0.3498,0.3508,0.3612,0.3612,0.3613,0.3572,0.3569,0.3567,0,0,0,0,0,0,0.2973,0.3057,0.3078,0.3124,0.3171,0.3243,0.3261,0.3288,0.3334,0.3336,0.3391,0.3407,0.3449,0.3483,0.3474,0.3541,0.3553,0.3557,0.3518,0.3515,0.3513,0.3504,0.351,0,0,0,0,0,0.2967,0.3007,0.3078,0.3112,0.3135,0.3194,0.322,0.3252,0.3303,0.3323,0.3371,0.3419,0.3463,0.3491,0.3536,0.3576,0.3592,0.359,0.3587,0.3585,0.3588,0.3611,0.3611,0.3614,0.3614,0.3614,0,0,0.2954,0.3005,0.3027,0.3103,0.3143,0.3183,0.321,0.3251,0.3281,0.333,0.3378,0.3413,0.3471,0.3515,0.3537,0.3545,0.359,0.3586,0.3583,0.3587,0.3612,0.3611,0.3611,0.3614,0.3614,0.3614,0,0,0.2952,0.2995,0.3028,0.3068,0.3129,0.3168,0.3176,0.3244,0.327,0.3319,0.3356,0.3392,0.3467,0.3507,0.3536,0.3548,0.3574,0.3561,0.3549,0.3572,0.3571,0.3572,0.3576,0.3577,0.3563,0.3563,0.3563,0,0.2929,0.2992,0.3041,0.308,0.3112,0.3158,0.3191,0.3227,0.3299,0.332,0.3328,0.3423,0.3464,0.3518,0.3521,0.3543,0.3554,0.3554,0.3568,0.3568,0.3569,0.3574,0.3575,0.3561,0.3561,0.3561,0.3561,0,0.296,0.3002,0.3021,0.309,0.3124,0.316,0.3214,0.3242,0.3271,0.3309,0.3357,0.3409,0.3465,0.348,0.3508,0.3537,0.354,0.3557,0.357,0.3566,0.3571,0.3573,0.3558,0.3559,0.3559,0.356,0,0,0.2929,0.3025,0.3031,0.3063,0.3133,0.3167,0.3204,0.3259,0.3281,0.3329,0.3362,0.3424,0.344,0.3473,0.3506,0.3526,0.3532,0.354,0.3543,0.3537,0.3567,0.3554,0.3555,0.3549,0.355,0.355,0.3562,0,0.2937,0.3007,0.3053,0.3105,0.3144,0.3188,0.322,0.3267,0.3303,0.3341,0.3381,0.3424,0.3442,0.3462,0.3484,0.3526,0.3539,0.3526,0.358,0.3581,0.3564,0.3558,0.3545,0.3554,0.3565,0.3565,0.3565,0,0.2956,0.3003,0.3059,0.3125,0.3143,0.3171,0.3225,0.3261,0.3314,0.3339,0.3376,0.3409,0.345,0.3459,0.3516,0.3506,0.3531,0.3555,0.3557,0.3564,0.3573,0.3565,0.3558,0.3559,0.3569,0.3569,0.3568,0,0.2928,0.3005,0.3049,0.3074,0.3152,0.3171,0.3204,0.3257,0.3287,0.3333,0.3353,0.3404,0.3431,0.3469,0.3515,0.3517,0.3567,0.358,0.3588,0.3587,0.3597,0.3596,0.3593,0.3612,0.3612,0.3612,0.3612,0,0.2932,0.2965,0.3037,0.3064,0.3101,0.3152,0.3188,0.3224,0.3271,0.3305,0.3346,0.3376,0.3435,0.3473,0.3509,0.355,0.3562,0.3583,0.3592,0.358,0.3577,0.3597,0.3597,0.3612,0.3612,0.3612,0.3612,0,0.2907,0.2957,0.3008,0.3077,0.3095,0.3119,0.3179,0.3206,0.3244,0.3286,0.3299,0.3359,0.3405,0.3455,0.3518,0.3542,0.3582,0.3595,0.3564,0.3569,0.3575,0.3573,0.3585,0.3589,0.3604,0.3604,0.3604,0,0.2907,0.2933,0.3005,0.3031,0.3064,0.3105,0.3136,0.3187,0.3217,0.3279,0.3298,0.3348,0.3391,0.3463,0.3512,0.356,0.3574,0.3575,0.3582,0.3568,0.3575,0.3572,0.3575,0.3573,0.3572,0.3572,0.3572,0,0.2901,0.2924,0.2968,0.3019,0.3055,0.3098,0.3142,0.3161,0.3221,0.3252,0.3301,0.3333,0.3398,0.3447,0.3501,0.3535,0.3563,0.3569,0.3574,0.3561,0.3542,0.3553,0.3558,0.3569,0.3569,0.3569,0.357,0.357,0.2889,0.2914,0.2969,0.3015,0.3054,0.3094,0.3123,0.3165,0.3206,0.3263,0.3291,0.3339,0.3391,0.3466,0.3499,0.3537,0.3546,0.3552,0.3554,0.3555,0.3551,0.3536,0.3547,0.3547,0.3547,0.3548,0.3548,0,0.2885,0.2922,0.2964,0.3026,0.3062,0.3086,0.3136,0.3164,0.3207,0.3253,0.3294,0.3349,0.3396,0.3448,0.3498,0.3519,0.3533,0.353,0.3529,0.3537,0.3541,0.3532,0.3518,0.3518,0.3518,0.3518,0.3518,0.3518,0.2887,0.2931,0.296,0.3023,0.306,0.3108,0.3135,0.3172,0.3209,0.3269,0.3309,0.3343,0.3391,0.3445,0.3489,0.3503,0.352,0.3513,0.3531,0.3534,0.3536,0.3539,0.3531,0.3516,0.3516,0.3524,0.3524,0.3524]},{"header":{"parameterUnit":"m.s-1","parameterCategory":1,"la1":30.2991,"la2":30.254,"lo1":-89.0895,"lo2":-89.0444,"dy":0.0017,"dx":0.0017,"nx":28,"ny":28,"refTime":"2025-03-22T03:00:00:Z","depth":0,"parameterNumber":3,"parameterNumberName":"V-component_of_WINDS"},"data":[0,0,0,0,0,0,0,0,0,0,0,0,0,0,0,0,0,0,0,0,0,0,0,0,0,0,0,0,0,0,0,0,0,0,0,0,0,0,0,0,0,0,0,0,0,0,0,0,0,0,0,0,0,0,0,0,0,0,4.7457,4.7457,0,4.7449,4.7449,4.7449,4.7391,4.739,4.7389,4.7387,4.738,4.7381,4.7382,0,0,0,0,0,0,0,0,0,0,0,0,0,4.7424,4.7424,4.7457,4.7457,4.7457,4.7449,4.7449,4.7449,4.7392,4.739,4.7388,4.7387,4.7379,4.738,4.7382,0,0,0,0,0,0,0,0,0,0,0,0,0,4.7429,4.7425,4.7457,4.7427,4.7425,4.7449,4.7449,4.7449,4.7392,4.739,4.7388,4.7386,4.7379,4.738,4.7382,4.7434,0,0,4.7387,4.7388,0,0,0,0,0,0,0,0,4.7429,4.743,4.7432,4.7429,4.7426,4.7419,4.7434,4.7444,4.7392,4.7404,4.7387,4.7385,4.7394,4.7395,4.7398,4.7434,4.7434,4.7387,4.7388,4.7389,4.7389,0,0,0,0,0,0,0,4.7429,4.743,4.7454,4.7432,4.7429,4.7415,4.7413,4.7436,4.7411,4.7403,4.7399,4.7399,4.7393,4.7396,4.7397,4.7434,4.7387,4.7389,4.739,4.739,4.7512,4.7514,0,0,0,0,0,0,4.7432,4.743,4.7454,4.7453,4.7422,4.7417,4.7415,4.7423,4.7411,4.7407,4.7401,4.7396,4.7395,4.7395,4.7397,4.7456,4.7389,4.739,4.7391,4.751,4.7512,4.7515,0,0,0,0,0,0,4.7432,4.7435,4.7454,4.7441,4.7442,4.742,4.743,4.7424,4.7428,4.7409,4.7404,4.7409,4.7393,4.7394,4.7425,4.7455,4.7391,4.7393,4.7507,4.751,4.7514,4.7577,0,0,0,0,0,0,4.7431,4.7435,4.7455,4.7442,4.7443,4.7483,4.7431,4.7426,4.7431,4.7425,4.7415,4.7412,4.7391,4.7423,4.7427,4.7456,4.7394,4.7504,4.7509,4.7513,4.7572,4.7582,4.759,0,0,0,0,0,4.743,4.7473,4.7456,4.7459,4.7467,4.7485,4.7486,4.7461,4.7434,4.7453,4.7441,4.7412,4.7452,4.7427,4.7431,4.7461,4.7502,4.7507,4.7512,4.7568,4.758,4.759,0,0,0,0,0,0,4.749,4.7471,4.7451,4.7491,4.749,4.7475,4.7499,4.7475,4.7481,4.7476,4.7445,4.7443,4.7479,4.7473,4.7446,4.7511,4.7472,4.7478,4.7513,4.7524,4.7533,4.7533,4.7395,0,0,0,0,0,4.7508,4.7524,4.7506,4.7543,4.7543,4.7522,4.7528,4.7509,4.7507,4.7506,4.7496,4.7495,4.7507,4.7516,4.7526,4.7571,4.7568,4.7594,4.7604,4.7611,4.7616,4.7639,4.7651,4.7531,4.7531,4.7531,0,0,4.7545,4.7536,4.7548,4.7555,4.7552,4.7569,4.7521,4.7542,4.7554,4.7509,4.7537,4.753,4.7527,4.7565,4.7582,4.7562,4.7649,4.7618,4.7624,4.7625,4.7646,4.7657,4.7667,4.7535,4.7534,4.7534,0,0,4.7621,4.7616,4.7646,4.7644,4.764,4.7625,4.7632,4.7621,4.7614,4.7642,4.7609,4.7623,4.7645,4.7644,4.7646,4.7722,4.7696,4.7727,4.7774,4.7797,4.7807,4.7815,4.7841,4.7851,4.7732,4.7732,4.7732,0,4.7667,4.7691,4.7665,4.7687,4.7691,4.7651,4.7681,4.768,4.768,4.7684,4.7661,4.7687,4.7683,4.772,4.7738,4.7742,4.7749,4.7727,4.7808,4.7815,4.7823,4.7847,4.7857,4.7736,4.7736,4.7735,4.7735,0,4.7748,4.7766,4.779,4.779,4.7797,4.7823,4.7801,4.7811,4.7792,4.7779,4.7808,4.7801,4.7809,4.7817,4.7798,4.7851,4.7839,4.7813,4.7773,4.7838,4.7861,4.787,4.7741,4.774,4.7739,4.7738,0,0,4.786,4.7846,4.7855,4.7854,4.7847,4.786,4.7885,4.7892,4.7901,4.7902,4.7922,4.7941,4.7917,4.7919,4.7901,4.7921,4.7981,4.7892,4.7892,4.7908,4.8038,4.8056,4.8068,4.7964,4.7966,4.7967,4.8038,0,4.7932,4.7973,4.7949,4.7993,4.8008,4.7972,4.7993,4.7991,4.798,4.7992,4.798,4.7994,4.7962,4.7963,4.7981,4.797,4.8006,4.7964,4.7981,4.7982,4.7982,4.808,4.81,4.8166,4.8046,4.8048,4.8049,0,4.8021,4.8026,4.8071,4.806,4.8066,4.8085,4.809,4.8102,4.8099,4.809,4.8093,4.807,4.8093,4.8055,4.8086,4.8058,4.8064,4.806,4.8062,4.8061,4.8018,4.8081,4.8187,4.8197,4.8063,4.8062,4.8061,0,4.8097,4.8115,4.8144,4.8145,4.8133,4.8148,4.8144,4.8139,4.8144,4.8149,4.8152,4.816,4.8164,4.817,4.8149,4.8124,4.8184,4.8144,4.8176,4.8177,4.8189,4.8188,4.8297,4.8195,4.8195,4.8195,4.8195,0,4.8179,4.8208,4.8178,4.8195,4.8226,4.82,4.8232,4.8224,4.822,4.8235,4.8205,4.822,4.8192,4.8205,4.8189,4.8217,4.822,4.8213,4.8208,4.8215,4.8215,4.8217,4.8211,4.8198,4.8197,4.8197,4.8196,0,4.8268,4.8249,4.8278,4.8265,4.8263,4.8286,4.8275,4.8291,4.8279,4.8299,4.8302,4.8283,4.8296,4.8276,4.8288,4.8277,4.8315,4.8304,4.8316,4.8312,4.8345,4.8342,4.8457,4.8471,4.8362,4.8363,4.8364,0,4.8321,4.8342,4.8331,4.8339,4.8337,4.8351,4.8356,4.8331,4.8339,4.8337,4.8353,4.8364,4.8371,4.8394,4.8381,4.839,4.8378,4.8418,4.8379,4.8385,4.8377,4.8375,4.8377,4.8425,4.8426,4.8428,4.8428,0,4.8416,4.8406,4.8415,4.8421,4.8428,4.8432,4.8434,4.8442,4.8416,4.8426,4.8439,4.8445,4.8456,4.8467,4.8472,4.8468,4.8444,4.8441,4.8449,4.8455,4.846,4.8457,4.8336,4.8438,4.8437,4.8436,4.8436,4.8435,4.8488,4.8504,4.8499,4.851,4.8509,4.8511,4.8525,4.8515,4.8525,4.8532,4.8517,4.8534,4.853,4.8535,4.8534,4.8547,4.8529,4.8541,4.8543,4.8546,4.8551,4.846,4.8548,4.8547,4.8547,4.8547,4.8547,0,4.858,4.8575,4.8586,4.8588,4.8597,4.8574,4.8574,4.8583,4.8598,4.8597,4.8605,4.862,4.863,4.8619,4.8627,4.8639,4.8628,4.8642,4.864,4.864,4.8566,4.8558,4.8651,4.8651,4.8651,4.8651,4.8651,4.8651,4.8629,4.8656,4.8645,4.8671,4.8666,4.8681,4.8684,4.8685,4.8684,4.8702,4.8711,4.8703,4.8697,4.8705,4.8714,4.871,4.8714,4.8732,4.8724,4.8655,4.8645,4.8635,4.8627,4.8733,4.8733,4.8796,4.8796,4.8797]}]]